Location: Proctor
(47.8934°N, 114.3048°W)
Time: 11:59:06
(UTC+00:00)

AIST 2D - Pass Details

Date: 07 July 2022
Orbit: 433 x 443 km, 97.0° (Epoch: 11 August)

Event Time Altitude Azimuth Distance (km) Brightness Sun altitude
Rises 05:55:17 0° 3° (N) 2,431 ? -15.6°
Reaches altitude 10° 05:57:27 10° 352° (N) 1,558 ? -15.7°
Maximum altitude 06:00:24 30° 290° (WNW) 823 ? -15.9°
Drops below altitude 10° 06:03:21 10° 228° (SW) 1,553 ? -16.1°
Enters shadow 06:03:34 - 226° (SW) 1,638 ? -16.1°
